ATLAS 5 CENTAUR DEB, 46857

Orbit data source: Space-Track

ATLAS 5 CENTAUR DEB, 46857 is space debris in HEO originally from a launch on Wed, 17 Oct 2018 UTC launched from the Air Force Eastern Test Range (AFETR). Debris objects in space refer to the collection of defunct objects orbiting the Earth. Examples of debris include non-operational satellites, rocket bodies, and fragments generated from explosions, collisions, or faulty payload assembly.

Not visible in the next 10 days
Identifier
46857, 2018-079DN
Orbit
HEO
Country
Flag of USUS
Related business
Flag of USUnited Launch Alliance/Lockheed Martin (US)
Manufacturer
ULA Decatur
Mission
Spacecraft
Bus & Motor
Unknown
Mass
Unknown
Launch date (UTC)
2018-10-17 (8 years ago)
Launch vehicle
Unknown
Launch site
Air Force Eastern Test Range (AFETR)
Object type
Payload
Rocket body
Debris
Shape & HBR
Unknown shape, 1.1 m
Radar Cross Section
RCS unknown

Expand to show TLE details & history
Last TLE update: 4 days ago

TLE from 4 days ago
0 ATLAS 5 CENTAUR DEB
1 46857U 18079DN  26169.88274783 -.00000120  00000-0  00000-0 0  9990
2 46857  12.6052  74.1696 4620748 236.4393  70.6209  1.69094810 34753
Epoch: 2026-06-18T21:11Z
TLE epoch observation values (Epoch: 2026-06-18T21:11:09.412Z)
Latitude
0.00003°
Longitude
-150.77653°
Altitude
25,087.391 km
Speed
3.456 km/s
True Right ascension
04h 56m 31s
True Declination
0° 00' 00"
Sunlit
Object was in daylight at epoch
Visualization orbit readout
Latitude
Unknown
Longitude
Unknown
Altitude
Unknown
Speed
Unknown
Apparent Right ascension
Unknown
Apparent Declination
Unknown
Sunlit
N/A
Visualization observer readout
Local Sidereal Time
21:44:03
Azimuth
Unknown
Elevation
Unknown
Doppler factor
Unknown
Orbital elements
Apogee altitude
37,137.659 km
Perigee altitude
9,632.154 km
Semi-major axis
29,763.043 km
Eccentricity
0.46207
Inclination
12.6052°
RAAN
74.1696°
Arg. of periapsis
236.4393°
True anomaly
123.47952°
Mean anomaly
70.6209°
Eccentric anomaly
96.90387°
Mean motion
0.4227 °/min
Orbital period
851.68 mins
BSTAR
0
Loading maneuver chart data...
Computing Atmospheric mass density...

Documentation

Showing up to 5 results
|